Location: Pasadena, ca
(34.1243°N, 118.1037°W)
Time: 07:14:08
(UTC-08:00)

Vanguard 1 - All Passes

Search period start: 11 December 2017 00:00
Search period end: 21 December 2017 00:00
Orbit: 650 x 3833 km, 34.2° (Epoch: 10 December)

Date Brightness Start Highest point End Pass type
(mag) Time Alt. Az. Time Alt. Az. Time Alt. Az.
11 Dec - 06:25:49 10° SSW 06:44:46 32° SE 06:59:55 10° E visible
11 Dec - 08:47:57 10° SW 09:09:57 64° SSE 09:23:25 10° ENE daylight
11 Dec - 11:15:46 10° W 11:34:21 89° S 11:44:03 10° E daylight
11 Dec - 13:44:12 10° W 13:56:56 79° SSW 14:03:38 10° ESE daylight
11 Dec - 16:10:33 10° W 16:16:46 25° SW 16:21:07 10° SSE daylight
12 Dec - 04:33:17 10° SSE 04:41:16 13° SE 04:49:00 10° ESE visible
12 Dec - 06:45:25 10° SSW 07:06:05 41° SE 07:21:59 10° E daylight
12 Dec - 09:09:13 10° WSW 09:31:24 72° SSE 09:44:35 10° ENE daylight
12 Dec - 11:37:47 10° W 11:55:45 89° N 12:05:03 10° E daylight
12 Dec - 14:05:57 10° WNW 14:17:58 67° SSW 14:24:25 10° ESE daylight
12 Dec - 16:33:00 10° W 16:37:12 16° SW 16:40:32 10° S daylight
13 Dec - 04:48:38 10° S 05:02:27 19° SE 05:15:29 10° E visible
13 Dec - 07:05:32 10° SW 07:27:26 49° SSE 07:43:41 10° E daylight
13 Dec - 09:30:47 10° WSW 09:52:54 80° SSE 10:05:42 10° E daylight
13 Dec - 11:59:48 10° W 12:17:09 90° N 12:26:04 10° E daylight
13 Dec - 14:27:43 10° WNW 14:38:51 54° SSW 14:45:02 10° SE daylight
14 Dec - 05:06:33 10° S 05:23:35 27° SE 05:39:17 10° E visible
14 Dec - 07:26:05 10° SW 07:48:50 58° SSE 08:05:09 10° ENE daylight
14 Dec - 09:52:34 10° WSW 10:14:25 86° SSE 10:26:48 10° E daylight
14 Dec - 12:21:48 10° W 12:38:29 86° S 12:47:02 10° ESE daylight
14 Dec - 14:49:31 10° W 14:59:34 41° SW 15:05:27 10° SSE daylight
15 Dec - 05:25:33 10° SSW 05:44:42 34° SE 06:02:00 10° E visible
15 Dec - 07:47:00 10° SW 08:10:18 67° SSE 08:26:28 10° ENE daylight
15 Dec - 10:14:30 10° W 10:35:58 89° S 10:47:53 10° E daylight
15 Dec - 12:43:46 10° W 12:59:43 79° SSW 13:07:56 10° ESE daylight
15 Dec - 15:11:32 10° W 15:20:05 29° SW 15:25:33 10° SSE daylight
16 Dec - 03:33:19 10° SSE 03:41:38 13° SE 03:50:09 10° ESE visible
16 Dec - 05:45:12 10° SSW 06:05:53 43° SE 06:24:07 10° E visible
16 Dec - 08:08:14 10° WSW 08:31:49 75° SSE 08:47:43 10° ENE daylight
16 Dec - 10:36:33 10° W 10:57:32 89° N 11:08:59 10° E daylight
16 Dec - 13:05:39 10° WNW 13:20:50 69° SSW 13:28:44 10° ESE daylight
16 Dec - 15:33:57 10° W 15:40:28 20° SW 15:45:06 10° S daylight
17 Dec - 03:49:03 10° S 04:02:33 20° SE 04:16:32 10° E visible
17 Dec - 06:05:20 10° SW 06:27:08 52° SE 06:45:54 10° ENE visible
17 Dec - 08:29:45 10° WSW 08:53:26 81° SSE 09:08:55 10° E daylight
17 Dec - 10:58:38 10° W 11:19:04 90° S 11:30:03 10° E daylight
17 Dec - 13:27:32 10° WNW 13:41:46 57° SSW 13:49:22 10° SE daylight
17 Dec - 15:57:40 10° WSW 16:00:44 12° SW 16:03:20 10° SSW daylight
18 Dec - 04:07:07 10° S 04:23:27 27° SE 04:40:23 10° E visible
18 Dec - 06:25:52 10° SW 06:48:29 60° SSE 07:07:27 10° ENE visible
18 Dec - 08:51:28 10° WSW 09:15:06 87° S 09:30:08 10° E daylight
18 Dec - 11:20:41 10° W 11:40:31 86° SSW 11:51:04 10° ESE daylight
18 Dec - 13:49:28 10° WNW 14:02:29 45° SW 14:09:47 10° SSE daylight
19 Dec - 04:26:10 10° SSW 04:44:22 35° SE 05:03:12 10° E visible
19 Dec - 06:46:44 10° SW 07:09:57 69° SSE 07:28:53 10° ENE daylight
19 Dec - 09:13:22 10° W 09:36:49 90° S 09:51:19 10° E daylight
19 Dec - 11:42:42 10° W 12:01:52 79° SSW 12:12:00 10° ESE daylight
19 Dec - 14:11:35 10° W 14:23:02 34° SW 14:29:53 10° SSE daylight
20 Dec - 02:34:46 10° SSE 02:42:04 13° SE 02:49:51 10° ESE visible
20 Dec - 04:45:51 10° SSW 05:05:22 44° SE 05:25:26 10° ENE visible
20 Dec - 07:07:54 10° WSW 07:31:32 76° SSE 07:50:14 10° ENE daylight
20 Dec - 09:35:21 10° W 09:58:31 89° N 10:12:29 10° E daylight
20 Dec - 12:04:41 10° WNW 12:23:04 70° SSW 12:32:49 10° ESE daylight
20 Dec - 14:34:03 10° W 14:43:24 24° SW 14:49:33 10° S daylight
